When you browse on this site, cookies collect data to enhance your experience and personalize the content and advertising you see.
Visit our Privacy Policy to learn more. By continuing to use the site, you agree to this use of cookies and data.
  • In Deutschland
  • Länderverzeichnis
  • Für 7 Tage
  • Wassertemperatur
  • Wetterkarte
  • Widgets
  • user-avatar
    Anmelden

    Stündliche Wetter Belize

    Heute, 19 November, Dienstag

    Zeit Temperatur Niederschläge Wind Luftdruck Luftfeuchtigkeit
    00:00 +19°C° 0 mm 3 m/S 760 mmHg 91%
    01:00 +18°C° 0 mm 4 m/S 760 mmHg 92%
    02:00 +18°C° 0 mm 4 m/S 760 mmHg 92%
    03:00 +18°C° 0 mm 4 m/S 760 mmHg 93%
    04:00 +17°C° 0 mm 4 m/S 760 mmHg 94%
    05:00 +17°C° 0 mm 4 m/S 760 mmHg 94%
    06:00 +16°C° 0 mm 3 m/S 761 mmHg 95%
    07:00 +19°C° 0 mm 3 m/S 761 mmHg 84%
    08:00 +21°C° 0 mm 3 m/S 762 mmHg 74%
    09:00 +25°C° 0 mm 3 m/S 762 mmHg 64%
    10:00 +27°C° 0 mm 3 m/S 762 mmHg 58%
    11:00 +29°C° 0 mm 2 m/S 761 mmHg 52%
    12:00 +31°C° 0 mm 2 m/S 760 mmHg 46%
    13:00 +30°C° 0 mm 3 m/S 760 mmHg 47%
    14:00 +30°C° 0 mm 3 m/S 760 mmHg 48%
    15:00 +30°C° 0 mm 4 m/S 759 mmHg 49%
    16:00 +27°C° 0 mm 4 m/S 760 mmHg 61%
    17:00 +25°C° 0 mm 4 m/S 760 mmHg 73%
    18:00 +21°C° 0 mm 4 m/S 760 mmHg 85%
    19:00 +21°C° 0 mm 3 m/S 761 mmHg 86%
    20:00 +20°C° 0 mm 3 m/S 761 mmHg 86%
    21:00 +20°C° 0 mm 2 m/S 762 mmHg 86%
    22:00 +19°C° 0 mm 2 m/S 762 mmHg 87%
    23:00 +20°C° 0 mm 1 m/S 761 mmHg 89%

    Morgen, 20 November, Mittwoch

    Zeit Temperatur Niederschläge Wind Luftdruck Luftfeuchtigkeit
    00:00 +20°C° 0 mm 1 m/S 761 mmHg 90%
    01:00 +20°C° 0 mm 1 m/S 761 mmHg 91%
    02:00 +19°C° 0 mm 2 m/S 761 mmHg 92%
    03:00 +18°C° 0 mm 2 m/S 761 mmHg 93%
    04:00 +18°C° 0 mm 3 m/S 761 mmHg 94%
    05:00 +18°C° 0 mm 3 m/S 761 mmHg 95%
    06:00 +17°C° 0 mm 3 m/S 761 mmHg 95%
    07:00 +20°C° 0 mm 3 m/S 762 mmHg 86%
    08:00 +24°C° 0 mm 3 m/S 762 mmHg 76%
    09:00 +26°C° 0 mm 3 m/S 763 mmHg 66%
    10:00 +28°C° 0 mm 3 m/S 762 mmHg 60%
    11:00 +29°C° 0 mm 3 m/S 762 mmHg 54%
    12:00 +31°C° 0 mm 3 m/S 761 mmHg 48%
    13:00 +31°C° 0 mm 3 m/S 760 mmHg 51%
    14:00 +30°C° 0 mm 3 m/S 760 mmHg 53%
    15:00 +30°C° 0 mm 3 m/S 759 mmHg 55%
    16:00 +27°C° 0 mm 4 m/S 759 mmHg 65%
    17:00 +25°C° 0 mm 4 m/S 760 mmHg 75%
    18:00 +22°C° 0 mm 4 m/S 760 mmHg 85%
    19:00 +22°C° 0.2 mm 4 m/S 760 mmHg 86%
    20:00 +22°C° 0.2 mm 4 m/S 761 mmHg 87%
    21:00 +22°C° 0.2 mm 4 m/S 761 mmHg 88%
    22:00 +22°C° 0.8 mm 4 m/S 761 mmHg 91%
    23:00 +22°C° 0.8 mm 4 m/S 761 mmHg 94%

    übermorgen, 21 November, Donnerstag

    Zeit Temperatur Niederschläge Wind Luftdruck Luftfeuchtigkeit
    00:00 +22°C° 0.8 mm 4 m/S 761 mmHg 96%
    01:00 +22°C° 0.9 mm 4 m/S 760 mmHg 97%
    02:00 +22°C° 0.9 mm 4 m/S 760 mmHg 98%
    03:00 +22°C° 0.9 mm 4 m/S 760 mmHg 99%
    04:00 +22°C° 1 mm 4 m/S 760 mmHg 99%
    05:00 +22°C° 1 mm 4 m/S 760 mmHg 99%
    06:00 +22°C° 1 mm 4 m/S 760 mmHg 99%
    07:00 +23°C° 0.8 mm 4 m/S 761 mmHg 99%
    08:00 +23°C° 0.8 mm 4 m/S 761 mmHg 98%
    09:00 +25°C° 0.8 mm 4 m/S 761 mmHg 98%
    10:00 +25°C° 0.6 mm 4 m/S 761 mmHg 96%
    11:00 +26°C° 0.6 mm 4 m/S 761 mmHg 95%
    12:00 +27°C° 0.6 mm 4 m/S 760 mmHg 94%
    13:00 +27°C° 0.2 mm 4 m/S 760 mmHg 93%
    14:00 +27°C° 0.2 mm 4 m/S 759 mmHg 93%
    15:00 +27°C° 0.2 mm 4 m/S 758 mmHg 92%
    16:00 +27°C° 0 mm 4 m/S 759 mmHg 94%
    17:00 +26°C° 0 mm 4 m/S 759 mmHg 95%
    18:00 +25°C° 0 mm 4 m/S 759 mmHg 97%
    19:00 +23°C° 0 mm 4 m/S 759 mmHg 97%
    20:00 +23°C° 0 mm 4 m/S 760 mmHg 97%
    21:00 +23°C° 0 mm 4 m/S 760 mmHg 97%
    22:00 +23°C° 0 mm 4 m/S 760 mmHg 96%
    23:00 +24°C° 0 mm 3 m/S 760 mmHg 96%

    22 November, Freitag

    Zeit Temperatur Niederschläge Wind Luftdruck Luftfeuchtigkeit
    00:00 +24°C° 0 mm 3 m/S 760 mmHg 95%
    01:00 +24°C° 0 mm 3 m/S 759 mmHg 95%
    02:00 +24°C° 0 mm 3 m/S 759 mmHg 94%
    03:00 +24°C° 0 mm 2 m/S 759 mmHg 94%
    04:00 +23°C° 0 mm 2 m/S 759 mmHg 95%
    05:00 +23°C° 0 mm 2 m/S 759 mmHg 95%
    06:00 +21°C° 0 mm 2 m/S 759 mmHg 96%
    07:00 +24°C° 0 mm 2 m/S 760 mmHg 87%
    08:00 +27°C° 0 mm 2 m/S 760 mmHg 78%
    09:00 +29°C° 0 mm 2 m/S 760 mmHg 70%
    10:00 +31°C° 0 mm 2 m/S 760 mmHg 64%
    11:00 +32°C° 0 mm 2 m/S 760 mmHg 58%
    12:00 +33°C° 0 mm 1 m/S 759 mmHg 52%
    13:00 +32°C° 0 mm 2 m/S 758 mmHg 55%
    14:00 +32°C° 0 mm 2 m/S 758 mmHg 58%
    15:00 +32°C° 0 mm 2 m/S 757 mmHg 61%
    16:00 +30°C° 0 mm 2 m/S 757 mmHg 73%
    17:00 +28°C° 0 mm 2 m/S 758 mmHg 84%
    18:00 +25°C° 0 mm 2 m/S 758 mmHg 96%
    19:00 +25°C° 0 mm 3 m/S 758 mmHg 96%
    20:00 +25°C° 0 mm 3 m/S 759 mmHg 97%
    21:00 +24°C° 0 mm 3 m/S 759 mmHg 98%
    22:00 +24°C° 0.2 mm 3 m/S 759 mmHg 97%
    23:00 +25°C° 0.2 mm 2 m/S 759 mmHg 97%

    23 November, Samstag

    Zeit Temperatur Niederschläge Wind Luftdruck Luftfeuchtigkeit
    00:00 +25°C° 0.2 mm 2 m/S 759 mmHg 97%
    01:00 +25°C° 0.2 mm 2 m/S 759 mmHg 97%
    02:00 +25°C° 0.2 mm 2 m/S 758 mmHg 97%
    03:00 +25°C° 0.2 mm 2 m/S 758 mmHg 97%
    04:00 +25°C° 0.1 mm 2 m/S 758 mmHg 97%
    05:00 +24°C° 0.1 mm 2 m/S 759 mmHg 98%
    06:00 +24°C° 0.1 mm 2 m/S 759 mmHg 98%
    07:00 +26°C° 0.2 mm 2 m/S 759 mmHg 93%
    08:00 +27°C° 0.2 mm 2 m/S 760 mmHg 87%
    09:00 +29°C° 0.2 mm 2 m/S 760 mmHg 82%
    10:00 +29°C° 0.6 mm 2 m/S 760 mmHg 83%
    11:00 +30°C° 0.6 mm 2 m/S 760 mmHg 85%
    12:00 +30°C° 0.6 mm 2 m/S 759 mmHg 86%
    13:00 +30°C° 0.3 mm 2 m/S 759 mmHg 88%
    14:00 +29°C° 0.3 mm 2 m/S 758 mmHg 89%
    15:00 +29°C° 0.3 mm 3 m/S 758 mmHg 90%
    16:00 +28°C° 0.3 mm 3 m/S 758 mmHg 93%
    17:00 +27°C° 0.3 mm 3 m/S 758 mmHg 95%
    18:00 +26°C° 0.3 mm 3 m/S 759 mmHg 98%
    19:00 +25°C° 1.1 mm 3 m/S 759 mmHg 98%
    20:00 +25°C° 1.1 mm 4 m/S 760 mmHg 98%
    21:00 +25°C° 1.1 mm 4 m/S 760 mmHg 98%
    22:00 +25°C° 0.9 mm 4 m/S 760 mmHg 98%
    23:00 +23°C° 0.9 mm 4 m/S 760 mmHg 99%

    24 November, Sonntag

    Zeit Temperatur Niederschläge Wind Luftdruck Luftfeuchtigkeit
    00:00 +23°C° 0.9 mm 4 m/S 760 mmHg 99%
    01:00 +23°C° 0.4 mm 4 m/S 759 mmHg 99%
    02:00 +23°C° 0.4 mm 4 m/S 759 mmHg 99%
    03:00 +23°C° 0.4 mm 4 m/S 759 mmHg 99%
    04:00 +23°C° 0.9 mm 4 m/S 759 mmHg 99%
    05:00 +23°C° 0.9 mm 4 m/S 759 mmHg 99%
    06:00 +22°C° 0.9 mm 4 m/S 760 mmHg 99%
    07:00 +25°C° 0.5 mm 4 m/S 760 mmHg 96%
    08:00 +26°C° 0.5 mm 5 m/S 761 mmHg 93%
    09:00 +27°C° 0.5 mm 5 m/S 761 mmHg 89%
    10:00 +29°C° 0 mm 5 m/S 761 mmHg 78%
    11:00 +30°C° 0 mm 5 m/S 760 mmHg 67%
    12:00 +33°C° 0 mm 5 m/S 760 mmHg 55%
    13:00 +33°C° 0 mm 5 m/S 759 mmHg 56%
    14:00 +33°C° 0 mm 5 m/S 759 mmHg 56%
    15:00 +33°C° 0 mm 5 m/S 758 mmHg 56%
    16:00 +29°C° 0 mm 5 m/S 759 mmHg 65%
    17:00 +27°C° 0 mm 5 m/S 759 mmHg 74%
    18:00 +25°C° 0 mm 5 m/S 759 mmHg 83%
    19:00 +23°C° 0 mm 5 m/S 760 mmHg 86%
    20:00 +23°C° 0 mm 5 m/S 760 mmHg 88%
    21:00 +22°C° 0 mm 5 m/S 760 mmHg 91%
    22:00 +22°C° 0 mm 4 m/S 760 mmHg 92%
    23:00 +22°C° 0 mm 4 m/S 760 mmHg 92%
    Mehr zeigen